Year,Month,Day,Hour,Minute,Value (Times are PST for barometer in hPa)
2014,11,20,00,00,985.30
2014,11,20,00,01,985.30
2014,11,20,00,02,985.30
2014,11,20,00,03,985.30
2014,11,20,00,04,985.27
2014,11,20,00,05,985.27
2014,11,20,00,06,985.27
2014,11,20,00,07,985.27
2014,11,20,00,08,985.27
2014,11,20,00,09,985.27
2014,11,20,00,10,985.27
2014,11,20,00,11,985.27
2014,11,20,00,12,985.27
2014,11,20,00,13,985.27
2014,11,20,00,14,985.27
2014,11,20,00,15,985.27
2014,11,20,00,16,985.27
2014,11,20,00,17,985.27
2014,11,20,00,18,985.27
2014,11,20,00,19,985.27
2014,11,20,00,20,985.27
2014,11,20,00,21,985.27
2014,11,20,00,22,985.27
2014,11,20,00,23,985.27
2014,11,20,00,24,985.27
2014,11,20,00,25,985.27
2014,11,20,00,26,985.27
2014,11,20,00,27,985.27
2014,11,20,00,28,985.27
2014,11,20,00,29,985.27
2014,11,20,00,30,985.27
2014,11,20,00,31,985.27
2014,11,20,00,32,985.27
2014,11,20,00,33,985.27
2014,11,20,00,34,985.24
2014,11,20,00,35,985.24
2014,11,20,00,36,985.24
2014,11,20,00,37,985.24
2014,11,20,00,38,985.24
2014,11,20,00,39,985.24
2014,11,20,00,40,985.24
2014,11,20,00,41,985.24
2014,11,20,00,42,985.24
2014,11,20,00,43,985.24
2014,11,20,00,44,985.24
2014,11,20,00,45,985.24
2014,11,20,00,46,985.24
2014,11,20,00,47,985.24
2014,11,20,00,48,985.24
2014,11,20,00,49,985.24
2014,11,20,00,50,985.24
2014,11,20,00,51,985.24
2014,11,20,00,52,985.24
2014,11,20,00,53,985.24
2014,11,20,00,54,985.24
2014,11,20,00,55,985.24
2014,11,20,00,56,985.24
2014,11,20,00,57,985.24
2014,11,20,00,58,985.24
2014,11,20,00,59,985.24
2014,11,20,01,00,985.24
2014,11,20,01,01,985.24
2014,11,20,01,02,985.24
2014,11,20,01,03,985.24
2014,11,20,01,04,985.00
2014,11,20,01,05,985.00
2014,11,20,01,06,985.00
2014,11,20,01,07,985.00
2014,11,20,01,08,985.00
2014,11,20,01,09,985.00
2014,11,20,01,10,985.00
2014,11,20,01,11,985.00
2014,11,20,01,12,985.00
2014,11,20,01,13,985.00
2014,11,20,01,14,985.00
2014,11,20,01,15,985.00
2014,11,20,01,16,985.00
2014,11,20,01,17,985.00
2014,11,20,01,18,985.00
2014,11,20,01,19,984.76
2014,11,20,01,20,984.76
2014,11,20,01,21,984.76
2014,11,20,01,22,984.76
2014,11,20,01,23,984.76
2014,11,20,01,24,984.76
2014,11,20,01,25,984.76
2014,11,20,01,26,984.76
2014,11,20,01,27,984.76
2014,11,20,01,28,984.76
2014,11,20,01,29,984.76
2014,11,20,01,30,984.76
2014,11,20,01,31,984.76
2014,11,20,01,32,984.76
2014,11,20,01,33,984.76
2014,11,20,01,34,984.80
2014,11,20,01,35,984.80
2014,11,20,01,36,984.80
2014,11,20,01,37,984.80
2014,11,20,01,38,984.80
2014,11,20,01,39,984.80
2014,11,20,01,40,984.80
2014,11,20,01,41,984.80
2014,11,20,01,42,984.80
2014,11,20,01,43,984.80
2014,11,20,01,44,984.80
2014,11,20,01,45,984.80
2014,11,20,01,46,984.80
2014,11,20,01,47,984.80
2014,11,20,01,48,984.80
2014,11,20,01,49,985.24
2014,11,20,01,50,985.24
2014,11,20,01,51,985.24
2014,11,20,01,52,985.24
2014,11,20,01,53,985.24
2014,11,20,01,54,985.24
2014,11,20,01,55,985.24
2014,11,20,01,56,985.24
2014,11,20,01,57,985.24
2014,11,20,01,58,985.24
2014,11,20,01,59,985.24
2014,11,20,02,00,985.24
2014,11,20,02,01,985.24
2014,11,20,02,02,985.24
2014,11,20,02,03,985.24
2014,11,20,02,04,985.57
2014,11,20,02,05,985.57
2014,11,20,02,06,985.57
2014,11,20,02,07,985.57
2014,11,20,02,08,985.57
2014,11,20,02,09,985.57
2014,11,20,02,10,985.57
2014,11,20,02,11,985.57
2014,11,20,02,12,985.57
2014,11,20,02,13,985.57
2014,11,20,02,14,985.57
2014,11,20,02,15,985.57
2014,11,20,02,16,985.57
2014,11,20,02,17,985.57
2014,11,20,02,18,985.57
2014,11,20,02,19,985.68
2014,11,20,02,20,985.68
2014,11,20,02,21,985.68
2014,11,20,02,22,985.68
2014,11,20,02,23,985.68
2014,11,20,02,24,985.68
2014,11,20,02,25,985.68
2014,11,20,02,26,985.68
2014,11,20,02,27,985.68
2014,11,20,02,28,985.68
2014,11,20,02,29,985.68
2014,11,20,02,30,985.68
2014,11,20,02,31,985.68
2014,11,20,02,32,985.68
2014,11,20,02,33,985.68
2014,11,20,02,34,985.71
2014,11,20,02,35,985.71
2014,11,20,02,36,985.71
2014,11,20,02,37,985.71
2014,11,20,02,38,985.71
2014,11,20,02,39,985.71
2014,11,20,02,40,985.71
2014,11,20,02,41,985.71
2014,11,20,02,42,985.71
2014,11,20,02,43,985.71
2014,11,20,02,44,985.71
2014,11,20,02,45,985.71
2014,11,20,02,46,985.71
2014,11,20,02,47,985.71
2014,11,20,02,48,985.71
2014,11,20,02,49,985.68
2014,11,20,02,50,985.68
2014,11,20,02,51,985.68
2014,11,20,02,52,985.68
2014,11,20,02,53,985.68
2014,11,20,02,54,985.68
2014,11,20,02,55,985.68
2014,11,20,02,56,985.68
2014,11,20,02,57,985.68
2014,11,20,02,58,985.68
2014,11,20,02,59,985.68
2014,11,20,03,00,985.68
2014,11,20,03,01,985.68
2014,11,20,03,02,985.68
2014,11,20,03,03,985.68
2014,11,20,03,04,985.68
2014,11,20,03,05,985.68
2014,11,20,03,06,985.68
2014,11,20,03,07,985.68
2014,11,20,03,08,985.68
2014,11,20,03,09,985.68
2014,11,20,03,10,985.68
2014,11,20,03,11,985.68
2014,11,20,03,12,985.68
2014,11,20,03,13,985.68
2014,11,20,03,14,985.68
2014,11,20,03,15,985.68
2014,11,20,03,16,985.68
2014,11,20,03,17,985.68
2014,11,20,03,18,985.68
2014,11,20,03,19,985.64
2014,11,20,03,20,985.64
2014,11,20,03,21,985.64
2014,11,20,03,22,985.64
2014,11,20,03,23,985.64
2014,11,20,03,24,985.64
2014,11,20,03,25,985.64
2014,11,20,03,26,985.64
2014,11,20,03,27,985.64
2014,11,20,03,28,985.64
2014,11,20,03,29,985.64
2014,11,20,03,30,985.64
2014,11,20,03,31,985.64
2014,11,20,03,32,985.64
2014,11,20,03,33,985.64
2014,11,20,03,34,985.74
2014,11,20,03,35,985.74
2014,11,20,03,36,985.74
2014,11,20,03,37,985.74
2014,11,20,03,38,985.74
2014,11,20,03,39,985.74
2014,11,20,03,40,985.74
2014,11,20,03,41,985.74
2014,11,20,03,42,985.74
2014,11,20,03,43,985.74
2014,11,20,03,44,985.74
2014,11,20,03,45,985.74
2014,11,20,03,46,985.74
2014,11,20,03,47,985.74
2014,11,20,03,48,985.74
2014,11,20,03,49,985.78
2014,11,20,03,50,985.78
2014,11,20,03,51,985.78
2014,11,20,03,52,985.78
2014,11,20,03,53,985.78
2014,11,20,03,54,985.78
2014,11,20,03,55,985.78
2014,11,20,03,56,985.78
2014,11,20,03,57,985.78
2014,11,20,03,58,985.78
2014,11,20,03,59,985.78
2014,11,20,04,00,985.78
2014,11,20,04,01,985.78
2014,11,20,04,02,985.78
2014,11,20,04,03,985.78
2014,11,20,04,04,985.84
2014,11,20,04,05,985.84
2014,11,20,04,06,985.84
2014,11,20,04,07,985.84
2014,11,20,04,08,985.84
2014,11,20,04,09,985.84
2014,11,20,04,10,985.84
2014,11,20,04,11,985.84
2014,11,20,04,12,985.84
2014,11,20,04,13,985.84
2014,11,20,04,14,985.84
2014,11,20,04,15,985.84
2014,11,20,04,16,985.84
2014,11,20,04,17,985.84
2014,11,20,04,18,985.84
2014,11,20,04,19,986.01
2014,11,20,04,20,986.01
2014,11,20,04,21,986.01
2014,11,20,04,22,986.01
2014,11,20,04,23,986.01
2014,11,20,04,24,986.01
2014,11,20,04,25,986.01
2014,11,20,04,26,986.01
2014,11,20,04,27,986.01
2014,11,20,04,28,986.01
2014,11,20,04,29,986.01
2014,11,20,04,30,986.01
2014,11,20,04,31,986.01
2014,11,20,04,32,986.01
2014,11,20,04,33,986.01
2014,11,20,04,34,986.22
2014,11,20,04,35,986.22
2014,11,20,04,36,986.22
2014,11,20,04,37,986.22
2014,11,20,04,38,986.22
2014,11,20,04,39,986.22
2014,11,20,04,40,986.22
2014,11,20,04,41,986.22
2014,11,20,04,42,986.22
2014,11,20,04,43,986.22
2014,11,20,04,44,986.22
2014,11,20,04,45,986.22
2014,11,20,04,46,986.22
2014,11,20,04,47,986.22
2014,11,20,04,48,986.22
2014,11,20,04,49,986.29
2014,11,20,04,50,986.29
2014,11,20,04,51,986.29
2014,11,20,04,52,986.29
2014,11,20,04,53,986.29
2014,11,20,04,54,986.29
2014,11,20,04,55,986.29
2014,11,20,04,56,986.29
2014,11,20,04,57,986.29
2014,11,20,04,58,986.29
2014,11,20,04,59,986.29
2014,11,20,05,00,986.29
2014,11,20,05,01,986.29
2014,11,20,05,02,986.29
2014,11,20,05,03,986.29
2014,11,20,05,04,986.29
2014,11,20,05,05,986.29
2014,11,20,05,06,986.29
2014,11,20,05,07,986.29
2014,11,20,05,08,986.29
2014,11,20,05,09,986.29
2014,11,20,05,10,986.29
2014,11,20,05,11,986.29
2014,11,20,05,12,986.29
2014,11,20,05,13,986.29
2014,11,20,05,14,986.29
2014,11,20,05,15,986.29
2014,11,20,05,16,986.29
2014,11,20,05,17,986.29
2014,11,20,05,18,986.29
2014,11,20,05,19,986.35
2014,11,20,05,20,986.35
2014,11,20,05,21,986.35
2014,11,20,05,22,986.35
2014,11,20,05,23,986.35
2014,11,20,05,24,986.35
2014,11,20,05,25,986.35
2014,11,20,05,26,986.35
2014,11,20,05,27,986.35
2014,11,20,05,28,986.35
2014,11,20,05,29,986.35
2014,11,20,05,30,986.35
2014,11,20,05,31,986.35
2014,11,20,05,32,986.35
2014,11,20,05,33,986.35
2014,11,20,05,34,986.42
2014,11,20,05,35,986.42
2014,11,20,05,36,986.42
2014,11,20,05,37,986.42
2014,11,20,05,38,986.42
2014,11,20,05,39,986.42
2014,11,20,05,40,986.42
2014,11,20,05,41,986.42
2014,11,20,05,42,986.42
2014,11,20,05,43,986.42
2014,11,20,05,44,986.42
2014,11,20,05,45,986.42
2014,11,20,05,46,986.42
2014,11,20,05,47,986.42
2014,11,20,05,48,986.42
2014,11,20,05,49,986.59
2014,11,20,05,50,986.59
2014,11,20,05,51,986.59
2014,11,20,05,52,986.59
2014,11,20,05,53,986.59
2014,11,20,05,54,986.59
2014,11,20,05,55,986.59
2014,11,20,05,56,986.59
2014,11,20,05,57,986.59
2014,11,20,05,58,986.59
2014,11,20,05,59,986.59
2014,11,20,06,00,986.59
2014,11,20,06,01,986.59
2014,11,20,06,02,986.59
2014,11,20,06,03,986.59
2014,11,20,06,04,986.76
2014,11,20,06,05,986.76
2014,11,20,06,06,986.76
2014,11,20,06,07,986.76
2014,11,20,06,08,986.76
2014,11,20,06,09,986.76
2014,11,20,06,10,986.76
2014,11,20,06,11,986.76
2014,11,20,06,12,986.76
2014,11,20,06,13,986.76
2014,11,20,06,14,986.76
2014,11,20,06,15,986.76
2014,11,20,06,16,986.76
2014,11,20,06,17,986.76
2014,11,20,06,18,986.76
2014,11,20,06,19,986.83
2014,11,20,06,20,986.83
2014,11,20,06,21,986.83
2014,11,20,06,22,986.83
2014,11,20,06,23,986.83
2014,11,20,06,24,986.83
2014,11,20,06,25,986.83
2014,11,20,06,26,986.83
2014,11,20,06,27,986.83
2014,11,20,06,28,986.83
2014,11,20,06,29,986.83
2014,11,20,06,30,986.83
2014,11,20,06,31,986.83
2014,11,20,06,32,986.83
2014,11,20,06,33,986.83
2014,11,20,06,34,986.93
2014,11,20,06,35,986.93
2014,11,20,06,36,986.93
2014,11,20,06,37,986.93
2014,11,20,06,38,986.93
2014,11,20,06,39,986.93
2014,11,20,06,40,986.93
2014,11,20,06,41,986.93
2014,11,20,06,42,986.93
2014,11,20,06,43,986.93
2014,11,20,06,44,986.93
2014,11,20,06,45,986.93
2014,11,20,06,46,986.93
2014,11,20,06,47,986.93
2014,11,20,06,48,986.93
2014,11,20,06,49,986.86
2014,11,20,06,50,986.86
2014,11,20,06,51,986.86
2014,11,20,06,52,986.86
2014,11,20,06,53,986.86
2014,11,20,06,54,986.86
2014,11,20,06,55,986.86
2014,11,20,06,56,986.86
2014,11,20,06,57,986.86
2014,11,20,06,58,986.86
2014,11,20,06,59,986.86
2014,11,20,07,00,986.86
2014,11,20,07,01,986.86
2014,11,20,07,02,986.86
2014,11,20,07,03,986.86
2014,11,20,07,04,986.89
2014,11,20,07,05,986.89
2014,11,20,07,06,986.89
2014,11,20,07,07,986.89
2014,11,20,07,08,986.89
2014,11,20,07,09,986.89
2014,11,20,07,10,986.89
2014,11,20,07,11,986.89
2014,11,20,07,12,986.89
2014,11,20,07,13,986.89
2014,11,20,07,14,986.89
2014,11,20,07,15,986.89
2014,11,20,07,16,986.89
2014,11,20,07,17,986.89
2014,11,20,07,18,986.89
2014,11,20,07,19,987.17
2014,11,20,07,20,987.17
2014,11,20,07,21,987.17
2014,11,20,07,22,987.17
2014,11,20,07,23,987.17
2014,11,20,07,24,987.17
2014,11,20,07,25,987.17
2014,11,20,07,26,987.17
2014,11,20,07,27,987.17
2014,11,20,07,28,987.17
2014,11,20,07,29,987.17
2014,11,20,07,30,987.17
2014,11,20,07,31,987.17
2014,11,20,07,32,987.17
2014,11,20,07,33,987.17
2014,11,20,07,34,987.06
2014,11,20,07,35,987.06
2014,11,20,07,36,987.06
2014,11,20,07,37,987.06
2014,11,20,07,38,987.06
2014,11,20,07,39,987.06
2014,11,20,07,40,987.06
2014,11,20,07,41,987.06
2014,11,20,07,42,987.06
2014,11,20,07,43,987.06
2014,11,20,07,44,987.06
2014,11,20,07,45,987.06
2014,11,20,07,46,987.06
2014,11,20,07,47,987.06
2014,11,20,07,48,987.06
2014,11,20,07,49,987.27
2014,11,20,07,50,987.27
2014,11,20,07,51,987.27
2014,11,20,07,52,987.27
2014,11,20,07,53,987.27
2014,11,20,07,54,987.27
2014,11,20,07,55,987.27
2014,11,20,07,56,987.27
2014,11,20,07,57,987.27
2014,11,20,07,58,987.27
2014,11,20,07,59,987.27
2014,11,20,08,00,987.27
2014,11,20,08,01,987.27
2014,11,20,08,02,987.27
2014,11,20,08,03,987.27
2014,11,20,08,04,987.27
2014,11,20,08,05,987.27
2014,11,20,08,06,987.27
2014,11,20,08,07,987.27
2014,11,20,08,08,987.27
2014,11,20,08,09,987.27
2014,11,20,08,10,987.27
2014,11,20,08,11,987.27
2014,11,20,08,12,987.27
2014,11,20,08,13,987.27
2014,11,20,08,14,987.27
2014,11,20,08,15,987.27
2014,11,20,08,16,987.27
2014,11,20,08,17,987.27
2014,11,20,08,18,987.27
2014,11,20,08,19,987.33
2014,11,20,08,20,987.33
2014,11,20,08,21,987.33
2014,11,20,08,22,987.33
2014,11,20,08,23,987.33
2014,11,20,08,24,987.33
2014,11,20,08,25,987.33
2014,11,20,08,26,987.33
2014,11,20,08,27,987.33
2014,11,20,08,28,987.33
2014,11,20,08,29,987.33
2014,11,20,08,30,987.33
2014,11,20,08,31,987.33
2014,11,20,08,32,987.33
2014,11,20,08,33,987.33
2014,11,20,08,34,987.33
2014,11,20,08,35,987.33
2014,11,20,08,36,987.33
2014,11,20,08,37,987.33
2014,11,20,08,38,987.33
2014,11,20,08,39,987.33
2014,11,20,08,40,987.33
2014,11,20,08,41,987.33
2014,11,20,08,42,987.33
2014,11,20,08,43,987.33
2014,11,20,08,44,987.33
2014,11,20,08,45,987.33
2014,11,20,08,46,987.33
2014,11,20,08,47,987.33
2014,11,20,08,48,987.33
2014,11,20,08,49,987.37
2014,11,20,08,50,987.37
2014,11,20,08,51,987.37
2014,11,20,08,52,987.37
2014,11,20,08,53,987.37
2014,11,20,08,54,987.37
2014,11,20,08,55,987.37
2014,11,20,08,56,987.37
2014,11,20,08,57,987.37
2014,11,20,08,58,987.37
2014,11,20,08,59,987.37
2014,11,20,09,00,987.37
2014,11,20,09,01,987.37
2014,11,20,09,02,987.37
2014,11,20,09,03,987.37
2014,11,20,09,04,987.33
2014,11,20,09,05,987.33
2014,11,20,09,06,987.33
2014,11,20,09,07,987.33
2014,11,20,09,08,987.33
2014,11,20,09,09,987.33
2014,11,20,09,10,987.33
2014,11,20,09,11,987.33
2014,11,20,09,12,987.33
2014,11,20,09,13,987.33
2014,11,20,09,14,987.33
2014,11,20,09,15,987.33
2014,11,20,09,16,987.33
2014,11,20,09,17,987.33
2014,11,20,09,18,987.33
2014,11,20,09,19,987.37
2014,11,20,09,20,987.37
2014,11,20,09,21,987.37
2014,11,20,09,22,987.37
2014,11,20,09,23,987.37
2014,11,20,09,24,987.37
2014,11,20,09,25,987.37
2014,11,20,09,26,987.37
2014,11,20,09,27,987.37
2014,11,20,09,28,987.37
2014,11,20,09,29,987.37
2014,11,20,09,30,987.37
2014,11,20,09,31,987.37
2014,11,20,09,32,987.37
2014,11,20,09,33,987.37
2014,11,20,09,34,987.44
2014,11,20,09,35,987.44
2014,11,20,09,36,987.44
2014,11,20,09,37,987.44
2014,11,20,09,38,987.44
2014,11,20,09,39,987.44
2014,11,20,09,40,987.44
2014,11,20,09,41,987.44
2014,11,20,09,42,987.44
2014,11,20,09,43,987.44
2014,11,20,09,44,987.44
2014,11,20,09,45,987.44
2014,11,20,09,46,987.44
2014,11,20,09,47,987.44
2014,11,20,09,48,987.44
2014,11,20,09,49,987.37
2014,11,20,09,50,987.37
2014,11,20,09,51,987.37
2014,11,20,09,52,987.37
2014,11,20,09,53,987.37
2014,11,20,09,54,987.37
2014,11,20,09,55,987.37
2014,11,20,09,56,987.37
2014,11,20,09,57,987.37
2014,11,20,09,58,987.37
2014,11,20,09,59,987.37
2014,11,20,10,00,987.37
2014,11,20,10,01,987.37
2014,11,20,10,02,987.37
2014,11,20,10,03,987.37
2014,11,20,10,04,987.54
2014,11,20,10,05,987.54
2014,11,20,10,06,987.54
2014,11,20,10,07,987.54
2014,11,20,10,08,987.54
2014,11,20,10,09,987.54
2014,11,20,10,10,987.54
2014,11,20,10,11,987.54
2014,11,20,10,12,987.54
2014,11,20,10,13,987.54
2014,11,20,10,14,987.54
2014,11,20,10,15,987.54
2014,11,20,10,16,987.54
2014,11,20,10,17,987.54
2014,11,20,10,18,987.54
2014,11,20,10,19,987.54
2014,11,20,10,20,987.54
2014,11,20,10,21,987.54
2014,11,20,10,22,987.54
2014,11,20,10,23,987.54
2014,11,20,10,24,987.54
2014,11,20,10,25,987.54
2014,11,20,10,26,987.54
2014,11,20,10,27,987.54
2014,11,20,10,28,987.54
2014,11,20,10,29,987.54
2014,11,20,10,30,987.54
2014,11,20,10,31,987.54
2014,11,20,10,32,987.54
2014,11,20,10,33,987.54
2014,11,20,10,34,987.61
2014,11,20,10,35,987.61
2014,11,20,10,36,987.61
2014,11,20,10,37,987.61
2014,11,20,10,38,987.61
2014,11,20,10,39,987.61
2014,11,20,10,40,987.61
2014,11,20,10,41,987.61
2014,11,20,10,42,987.61
2014,11,20,10,43,987.61
2014,11,20,10,44,987.61
2014,11,20,10,45,987.61
2014,11,20,10,46,987.61
2014,11,20,10,47,987.61
2014,11,20,10,48,987.61
2014,11,20,10,49,987.84
2014,11,20,10,50,987.84
2014,11,20,10,51,987.84
2014,11,20,10,52,987.84
2014,11,20,10,53,987.84
2014,11,20,10,54,987.84
2014,11,20,10,55,987.84
2014,11,20,10,56,987.84
2014,11,20,10,57,987.84
2014,11,20,10,58,987.84
2014,11,20,10,59,987.84
2014,11,20,11,00,987.84
2014,11,20,11,01,987.84
2014,11,20,11,02,987.84
2014,11,20,11,03,987.84
2014,11,20,11,04,987.74
2014,11,20,11,05,987.74
2014,11,20,11,06,987.74
2014,11,20,11,07,987.74
2014,11,20,11,08,987.74
2014,11,20,11,09,987.74
2014,11,20,11,10,987.74
2014,11,20,11,11,987.74
2014,11,20,11,12,987.74
2014,11,20,11,13,987.74
2014,11,20,11,14,987.74
2014,11,20,11,15,987.74
2014,11,20,11,16,987.74
2014,11,20,11,17,987.74
2014,11,20,11,18,987.74
2014,11,20,11,19,987.71
2014,11,20,11,20,987.71
2014,11,20,11,21,987.71
2014,11,20,11,22,987.71
2014,11,20,11,23,987.71
2014,11,20,11,24,987.71
2014,11,20,11,25,987.71
2014,11,20,11,26,987.71
2014,11,20,11,27,987.71
2014,11,20,11,28,987.71
2014,11,20,11,29,987.71
2014,11,20,11,30,987.71
2014,11,20,11,31,987.71
2014,11,20,11,32,987.71
2014,11,20,11,33,987.71
2014,11,20,11,34,987.64
2014,11,20,11,35,987.64
2014,11,20,11,36,987.64
2014,11,20,11,37,987.64
2014,11,20,11,38,987.64
2014,11,20,11,39,987.64
2014,11,20,11,40,987.64
2014,11,20,11,41,987.64
2014,11,20,11,42,987.64
2014,11,20,11,43,987.64
2014,11,20,11,44,987.64
2014,11,20,11,45,987.64
2014,11,20,11,46,987.64
2014,11,20,11,47,987.64
2014,11,20,11,48,987.64
2014,11,20,11,49,987.37
2014,11,20,11,50,987.37
2014,11,20,11,51,987.37
2014,11,20,11,52,987.37
2014,11,20,11,53,987.37
2014,11,20,11,54,987.37
2014,11,20,11,55,987.37
2014,11,20,11,56,987.37
2014,11,20,11,57,987.37
2014,11,20,11,58,987.37
2014,11,20,11,59,987.37
2014,11,20,12,00,987.37
2014,11,20,12,01,987.37
2014,11,20,12,02,987.37
2014,11,20,12,03,987.37
2014,11,20,12,04,987.30
2014,11,20,12,05,987.30
2014,11,20,12,06,987.30
2014,11,20,12,07,987.30
2014,11,20,12,08,987.30
2014,11,20,12,09,987.30
2014,11,20,12,10,987.30
2014,11,20,12,11,987.30
2014,11,20,12,12,987.30
2014,11,20,12,13,987.30
2014,11,20,12,14,987.30
2014,11,20,12,15,987.30
2014,11,20,12,16,987.30
2014,11,20,12,17,987.30
2014,11,20,12,18,987.30
2014,11,20,12,19,987.30
2014,11,20,12,20,987.30
2014,11,20,12,21,987.30
2014,11,20,12,22,987.30
2014,11,20,12,23,987.30
2014,11,20,12,24,987.30
2014,11,20,12,25,987.30
2014,11,20,12,26,987.30
2014,11,20,12,27,987.30
2014,11,20,12,28,987.30
2014,11,20,12,29,987.30
2014,11,20,12,30,987.30
2014,11,20,12,31,987.30
2014,11,20,12,32,987.30
2014,11,20,12,33,987.30
2014,11,20,12,34,987.33
2014,11,20,12,35,987.33
2014,11,20,12,36,987.33
2014,11,20,12,37,987.33
2014,11,20,12,38,987.33
2014,11,20,12,39,987.33
2014,11,20,12,40,987.33
2014,11,20,12,41,987.33
2014,11,20,12,42,987.33
2014,11,20,12,43,987.33
2014,11,20,12,44,987.33
2014,11,20,12,45,987.33
2014,11,20,12,46,987.33
2014,11,20,12,47,987.33
2014,11,20,12,48,987.33
2014,11,20,12,49,987.40
2014,11,20,12,50,987.40
2014,11,20,12,51,987.40
2014,11,20,12,52,987.40
2014,11,20,12,53,987.40
2014,11,20,12,54,987.40
2014,11,20,12,55,987.40
2014,11,20,12,56,987.40
2014,11,20,12,57,987.40
2014,11,20,12,58,987.40
2014,11,20,12,59,987.40
2014,11,20,13,00,987.40
2014,11,20,13,01,987.40
2014,11,20,13,02,987.40
2014,11,20,13,03,987.40
2014,11,20,13,04,987.64
2014,11,20,13,05,987.64
2014,11,20,13,06,987.64
2014,11,20,13,07,987.64
2014,11,20,13,08,987.64
2014,11,20,13,09,987.64
2014,11,20,13,10,987.64
2014,11,20,13,11,987.64
2014,11,20,13,12,987.64
2014,11,20,13,13,987.64
2014,11,20,13,14,987.64
2014,11,20,13,15,987.64
2014,11,20,13,16,987.64
2014,11,20,13,17,987.64
2014,11,20,13,18,987.64
2014,11,20,13,19,987.47
2014,11,20,13,20,987.47
2014,11,20,13,21,987.47
2014,11,20,13,22,987.47
2014,11,20,13,23,987.47
2014,11,20,13,24,987.47
2014,11,20,13,25,987.47
2014,11,20,13,26,987.47
2014,11,20,13,27,987.47
2014,11,20,13,28,987.47
2014,11,20,13,29,987.47
2014,11,20,13,30,987.47
2014,11,20,13,31,987.47
2014,11,20,13,32,987.47
2014,11,20,13,33,987.47
2014,11,20,13,34,987.40
2014,11,20,13,35,987.40
2014,11,20,13,36,987.40
2014,11,20,13,37,987.40
2014,11,20,13,38,987.40
2014,11,20,13,39,987.40
2014,11,20,13,40,987.40
2014,11,20,13,41,987.40
2014,11,20,13,42,987.40
2014,11,20,13,43,987.40
2014,11,20,13,44,987.40
2014,11,20,13,45,987.40
2014,11,20,13,46,987.40
2014,11,20,13,47,987.40
2014,11,20,13,48,987.40
2014,11,20,13,49,987.33
2014,11,20,13,50,987.33
2014,11,20,13,51,987.33
2014,11,20,13,52,987.33
2014,11,20,13,53,987.33
2014,11,20,13,54,987.33
2014,11,20,13,55,987.33
2014,11,20,13,56,987.33
2014,11,20,13,57,987.33
2014,11,20,13,58,987.33
2014,11,20,13,59,987.33
2014,11,20,14,00,987.33
2014,11,20,14,01,987.33
2014,11,20,14,02,987.33
2014,11,20,14,03,987.33
2014,11,20,14,04,987.30
2014,11,20,14,05,987.30
2014,11,20,14,06,987.30
2014,11,20,14,07,987.30
2014,11,20,14,08,987.30
2014,11,20,14,09,987.30
2014,11,20,14,10,987.30
2014,11,20,14,11,987.30
2014,11,20,14,12,987.30
2014,11,20,14,13,987.30
2014,11,20,14,14,987.30
2014,11,20,14,15,987.30
2014,11,20,14,16,987.30
2014,11,20,14,17,987.30
2014,11,20,14,18,987.30
2014,11,20,14,19,987.30
2014,11,20,14,20,987.30
2014,11,20,14,21,987.30
2014,11,20,14,22,987.30
2014,11,20,14,23,987.30
2014,11,20,14,24,987.30
2014,11,20,14,25,987.30
2014,11,20,14,26,987.30
2014,11,20,14,27,987.30
2014,11,20,14,28,987.30
2014,11,20,14,29,987.30
2014,11,20,14,30,987.30
2014,11,20,14,31,987.30
2014,11,20,14,32,987.30
2014,11,20,14,33,987.30
2014,11,20,14,34,987.33
2014,11,20,14,35,987.33
2014,11,20,14,36,987.33
2014,11,20,14,37,987.33
2014,11,20,14,38,987.33
2014,11,20,14,39,987.33
2014,11,20,14,40,987.33
2014,11,20,14,41,987.33
2014,11,20,14,42,987.33
2014,11,20,14,43,987.33
2014,11,20,14,44,987.33
2014,11,20,14,45,987.33
2014,11,20,14,46,987.33
2014,11,20,14,47,987.33
2014,11,20,14,48,987.33
2014,11,20,14,49,987.33
2014,11,20,14,50,987.33
2014,11,20,14,51,987.33
2014,11,20,14,52,987.33
2014,11,20,14,53,987.33
2014,11,20,14,54,987.33
2014,11,20,14,55,987.33
2014,11,20,14,56,987.33
2014,11,20,14,57,987.33
2014,11,20,14,58,987.33
2014,11,20,14,59,987.33
2014,11,20,15,00,987.33
2014,11,20,15,01,987.33
2014,11,20,15,02,987.33
2014,11,20,15,03,987.33
2014,11,20,15,04,987.54
2014,11,20,15,05,987.54
2014,11,20,15,06,987.54
2014,11,20,15,07,987.54
2014,11,20,15,08,987.54
2014,11,20,15,09,987.54
2014,11,20,15,10,987.54
2014,11,20,15,11,987.54
2014,11,20,15,12,987.54
2014,11,20,15,13,987.54
2014,11,20,15,14,987.54
2014,11,20,15,15,987.54
2014,11,20,15,16,987.54
2014,11,20,15,17,987.54
2014,11,20,15,18,987.54
2014,11,20,15,19,987.54
2014,11,20,15,20,987.54
2014,11,20,15,21,987.54
2014,11,20,15,22,987.54
2014,11,20,15,23,987.54
2014,11,20,15,24,987.54
2014,11,20,15,25,987.54
2014,11,20,15,26,987.54
2014,11,20,15,27,987.54
2014,11,20,15,28,987.54
2014,11,20,15,29,987.54
2014,11,20,15,30,987.54
2014,11,20,15,31,987.54
2014,11,20,15,32,987.54
2014,11,20,15,33,987.54
2014,11,20,15,34,987.47
2014,11,20,15,35,987.47
2014,11,20,15,36,987.47
2014,11,20,15,37,987.47
2014,11,20,15,38,987.47
2014,11,20,15,39,987.47
2014,11,20,15,40,987.47
2014,11,20,15,41,987.47
2014,11,20,15,42,987.47
2014,11,20,15,43,987.47
2014,11,20,15,44,987.47
2014,11,20,15,45,987.47
2014,11,20,15,46,987.47
2014,11,20,15,47,987.47
2014,11,20,15,48,987.47
2014,11,20,15,49,987.47
2014,11,20,15,50,987.47
2014,11,20,15,51,987.47
2014,11,20,15,52,987.47
2014,11,20,15,53,987.47
2014,11,20,15,54,987.47
2014,11,20,15,55,987.47
2014,11,20,15,56,987.47
2014,11,20,15,57,987.47
2014,11,20,15,58,987.47
2014,11,20,15,59,987.47
2014,11,20,16,00,987.47
2014,11,20,16,01,987.47
2014,11,20,16,02,987.47
2014,11,20,16,03,987.47
2014,11,20,16,04,987.47
2014,11,20,16,05,987.47
2014,11,20,16,06,987.47
2014,11,20,16,07,987.47
2014,11,20,16,08,987.47
2014,11,20,16,09,987.47
2014,11,20,16,10,987.47
2014,11,20,16,11,987.47
2014,11,20,16,12,987.47
2014,11,20,16,13,987.47
2014,11,20,16,14,987.47
2014,11,20,16,15,987.47
2014,11,20,16,16,987.47
2014,11,20,16,17,987.47
2014,11,20,16,18,987.47
2014,11,20,16,19,987.37
2014,11,20,16,20,987.37
2014,11,20,16,21,987.37
2014,11,20,16,22,987.37
2014,11,20,16,23,987.37
2014,11,20,16,24,987.37
2014,11,20,16,25,987.37
2014,11,20,16,26,987.37
2014,11,20,16,27,987.37
2014,11,20,16,28,987.37
2014,11,20,16,29,987.37
2014,11,20,16,30,987.37
2014,11,20,16,31,987.37
2014,11,20,16,32,987.37
2014,11,20,16,33,987.37
2014,11,20,16,34,987.37
2014,11,20,16,35,987.37
2014,11,20,16,36,987.37